[[{"header":{"parameterUnit":"m.s-1","parameterCategory":1,"la1":30.2991,"la2":30.254,"lo1":-89.0895,"lo2":-89.0444,"dy":0.0017,"dx":0.0017,"nx":28,"ny":28,"refTime":"2024-07-08T09:00:00:Z","depth":0,"parameterNumber":2,"parameterNumberName":"U-component_of_WINDS"},"data":[0,0,0,0,0,0,0,0,0,0,0,0,0,0,0,0,0,0,0,0,0,0,0,0,0,0,0,0,0,0,0,0,0,0,0,0,0,0,0,0,0,0,0,0,0,0,0,0,0,0,0,0,0,0,0,0,0,0,-1.3837,-1.3839,0,-1.4025,-1.4027,-1.403,-1.4154,-1.4154,-1.4155,-1.4156,-1.4351,-1.4355,-1.436,0,0,0,0,0,0,0,0,0,0,0,0,0,-1.3585,-1.3589,-1.3837,-1.3839,-1.3841,-1.4025,-1.4028,-1.403,-1.4153,-1.4154,-1.4155,-1.4156,-1.4349,-1.4355,-1.436,0,0,0,0,0,0,0,0,0,0,0,0,0,-1.3726,-1.3591,-1.3836,-1.3925,-1.3935,-1.4024,-1.4028,-1.4031,-1.4153,-1.4154,-1.4156,-1.4157,-1.4348,-1.4354,-1.4361,-1.4378,0,0,-1.4381,-1.4384,0,0,0,0,0,0,0,0,-1.3718,-1.3735,-1.391,-1.3919,-1.393,-1.4067,-1.4011,-1.4147,-1.4153,-1.407,-1.4156,-1.4157,-1.4256,-1.427,-1.4303,-1.4387,-1.4395,-1.4382,-1.4386,-1.4388,-1.439,0,0,0,0,0,0,0,-1.3708,-1.3728,-1.3911,-1.3912,-1.3925,-1.3956,-1.3977,-1.4037,-1.4154,-1.4078,-1.4087,-1.4108,-1.4261,-1.4296,-1.4308,-1.4398,-1.4381,-1.4387,-1.4391,-1.4394,-1.4505,-1.4504,0,0,0,0,0,0,-1.3684,-1.3719,-1.3905,-1.3917,-1.3825,-1.3959,-1.3983,-1.4022,-1.4154,-1.4175,-1.4106,-1.4113,-1.4284,-1.43,-1.4315,-1.4343,-1.4388,-1.4395,-1.4399,-1.4506,-1.4505,-1.4504,0,0,0,0,0,0,-1.3678,-1.3699,-1.3898,-1.3821,-1.3848,-1.3962,-1.4005,-1.4025,-1.406,-1.4175,-1.4197,-1.412,-1.4286,-1.4306,-1.4361,-1.4352,-1.4398,-1.4404,-1.4507,-1.4506,-1.4504,-1.4399,0,0,0,0,0,0,-1.367,-1.3697,-1.3704,-1.382,-1.3852,-1.3939,-1.4004,-1.4028,-1.4071,-1.4081,-1.4194,-1.4214,-1.4288,-1.435,-1.4367,-1.4362,-1.4409,-1.4508,-1.4506,-1.4505,-1.4404,-1.4394,-1.4385,0,0,0,0,0,-1.3661,-1.3667,-1.3703,-1.3725,-1.3863,-1.3938,-1.3957,-1.4042,-1.4069,-1.4078,-1.4152,-1.421,-1.435,-1.4355,-1.4375,-1.4371,-1.4509,-1.4507,-1.4505,-1.4408,-1.4396,-1.4386,0,0,0,0,0,0,-1.3548,-1.3684,-1.3726,-1.377,-1.3841,-1.3959,-1.3972,-1.4027,-1.4093,-1.4099,-1.4203,-1.4227,-1.4271,-1.4328,-1.433,-1.4394,-1.4437,-1.4438,-1.4356,-1.4346,-1.4337,-1.4322,-1.4414,0,0,0,0,0,-1.3528,-1.3577,-1.3694,-1.3721,-1.3755,-1.3857,-1.3893,-1.3952,-1.4031,-1.4062,-1.4141,-1.4215,-1.4276,-1.4314,-1.4377,-1.4413,-1.4439,-1.442,-1.4411,-1.4403,-1.4403,-1.4425,-1.4418,-1.4496,-1.4496,-1.4496,0,0,-1.3488,-1.3568,-1.3593,-1.3701,-1.3763,-1.3812,-1.3882,-1.3931,-1.3968,-1.407,-1.4126,-1.4186,-1.4277,-1.4321,-1.4345,-1.4369,-1.4387,-1.44,-1.4393,-1.4397,-1.4422,-1.4414,-1.4408,-1.4494,-1.4494,-1.4495,0,0,-1.3439,-1.3505,-1.3534,-1.3595,-1.3689,-1.3757,-1.3763,-1.3873,-1.3916,-1.3974,-1.4051,-1.4098,-1.4201,-1.4262,-1.4306,-1.4279,-1.4335,-1.4297,-1.4249,-1.427,-1.4264,-1.4259,-1.4248,-1.4243,-1.4297,-1.4296,-1.4296,0,-1.3377,-1.3453,-1.3543,-1.3587,-1.3632,-1.3726,-1.3756,-1.3812,-1.3921,-1.395,-1.3975,-1.4106,-1.4174,-1.4233,-1.4227,-1.426,-1.4271,-1.4284,-1.4257,-1.4253,-1.425,-1.4241,-1.4237,-1.4291,-1.4292,-1.4292,-1.4293,0,-1.3372,-1.3424,-1.3437,-1.3538,-1.3585,-1.3622,-1.3718,-1.3754,-1.3809,-1.3874,-1.3931,-1.4016,-1.4096,-1.4116,-1.417,-1.4183,-1.4195,-1.4237,-1.4282,-1.4235,-1.4229,-1.4226,-1.4283,-1.4285,-1.4287,-1.4288,0,0,-1.3258,-1.3408,-1.3411,-1.3458,-1.3567,-1.3609,-1.3651,-1.3729,-1.3757,-1.383,-1.3867,-1.3952,-1.3991,-1.4041,-1.4104,-1.4122,-1.4094,-1.4163,-1.4166,-1.4146,-1.4113,-1.4079,-1.4074,-1.4132,-1.4132,-1.4132,-1.4105,0,-1.3224,-1.3302,-1.3384,-1.3434,-1.3482,-1.3571,-1.3608,-1.3679,-1.374,-1.3791,-1.386,-1.3918,-1.3966,-1.3997,-1.4019,-1.4092,-1.4089,-1.4096,-1.4167,-1.4169,-1.4141,-1.4071,-1.4036,-1.4006,-1.4103,-1.4102,-1.4102,0,-1.3196,-1.3263,-1.3316,-1.342,-1.3444,-1.3474,-1.3552,-1.3599,-1.3682,-1.3726,-1.3781,-1.3847,-1.3896,-1.3935,-1.4003,-1.4006,-1.404,-1.4081,-1.4082,-1.4091,-1.4132,-1.4077,-1.3999,-1.3993,-1.4099,-1.4099,-1.41,0,-1.3106,-1.3209,-1.3254,-1.3292,-1.3414,-1.3434,-1.3486,-1.357,-1.3611,-1.368,-1.3707,-1.3781,-1.3821,-1.3876,-1.396,-1.3981,-1.4019,-1.4065,-1.4056,-1.4054,-1.4059,-1.4058,-1.3984,-1.4083,-1.4083,-1.4083,-1.4083,0,-1.306,-1.3089,-1.3215,-1.3242,-1.3277,-1.3371,-1.3404,-1.3464,-1.3538,-1.3579,-1.3662,-1.3699,-1.3808,-1.3859,-1.3925,-1.3971,-1.3988,-1.4025,-1.4042,-1.4017,-1.4012,-1.404,-1.4044,-1.4082,-1.4082,-1.4082,-1.4083,0,-1.2964,-1.305,-1.3105,-1.3216,-1.3245,-1.3265,-1.3361,-1.3392,-1.3458,-1.3509,-1.3527,-1.3631,-1.3694,-1.3783,-1.3875,-1.3919,-1.3955,-1.3983,-1.3926,-1.3936,-1.3922,-1.3921,-1.3863,-1.386,-1.396,-1.3959,-1.3958,0,-1.2929,-1.2953,-1.3066,-1.3099,-1.3148,-1.32,-1.3243,-1.3336,-1.3377,-1.3472,-1.3491,-1.356,-1.3621,-1.3718,-1.3802,-1.3872,-1.3902,-1.3877,-1.3913,-1.3886,-1.39,-1.3897,-1.3899,-1.3867,-1.3866,-1.3864,-1.3863,0,-1.2856,-1.2897,-1.2954,-1.3025,-1.3073,-1.3134,-1.3199,-1.3222,-1.333,-1.3371,-1.3436,-1.3483,-1.3575,-1.3643,-1.3724,-1.3779,-1.3838,-1.3851,-1.3853,-1.3827,-1.3792,-1.381,-1.3901,-1.3852,-1.3853,-1.3854,-1.3855,-1.3855,-1.279,-1.2815,-1.2898,-1.2958,-1.3017,-1.3075,-1.3109,-1.3178,-1.3234,-1.3315,-1.3368,-1.3429,-1.3512,-1.3627,-1.3678,-1.3729,-1.3754,-1.3756,-1.3756,-1.3755,-1.3746,-1.3785,-1.3744,-1.3745,-1.3745,-1.3745,-1.3746,0,-1.272,-1.2778,-1.2832,-1.292,-1.2967,-1.3019,-1.3094,-1.313,-1.3183,-1.3254,-1.3311,-1.3385,-1.3451,-1.354,-1.3612,-1.3635,-1.3665,-1.3651,-1.365,-1.3661,-1.372,-1.3711,-1.3626,-1.3626,-1.3626,-1.3626,-1.3626,-1.3626,-1.269,-1.2734,-1.2785,-1.2859,-1.2917,-1.2977,-1.3015,-1.307,-1.3127,-1.3205,-1.326,-1.3317,-1.3395,-1.3474,-1.3537,-1.3561,-1.3584,-1.3561,-1.3594,-1.3647,-1.3657,-1.3668,-1.366,-1.3565,-1.3565,-1.3531,-1.3531,-1.353]},{"header":{"parameterUnit":"m.s-1","parameterCategory":1,"la1":30.2991,"la2":30.254,"lo1":-89.0895,"lo2":-89.0444,"dy":0.0017,"dx":0.0017,"nx":28,"ny":28,"refTime":"2024-07-08T09:00:00:Z","depth":0,"parameterNumber":3,"parameterNumberName":"V-component_of_WINDS"},"data":[0,0,0,0,0,0,0,0,0,0,0,0,0,0,0,0,0,0,0,0,0,0,0,0,0,0,0,0,0,0,0,0,0,0,0,0,0,0,0,0,0,0,0,0,0,0,0,0,0,0,0,0,0,0,0,0,0,0,6.5946,6.5947,0,6.6012,6.6013,6.6014,6.5924,6.5921,6.5918,6.5915,6.5978,6.5983,6.5987,0,0,0,0,0,0,0,0,0,0,0,0,0,6.5737,6.5741,6.5946,6.5947,6.5948,6.6012,6.6013,6.6014,6.5925,6.5921,6.5917,6.5913,6.5976,6.5982,6.5988,0,0,0,0,0,0,0,0,0,0,0,0,0,6.5818,6.5742,6.5946,6.5911,6.5909,6.6012,6.6013,6.6014,6.5926,6.5921,6.5916,6.5911,6.5975,6.5981,6.5988,6.6127,0,0,6.601,6.6013,0,0,0,0,0,0,0,0,6.5813,6.5825,6.5916,6.5914,6.5911,6.5955,6.5962,6.6052,6.5927,6.5919,6.5915,6.5909,6.5974,6.5981,6.6003,6.613,6.6133,6.601,6.6015,6.6018,6.602,0,0,0,0,0,0,0,6.5808,6.5822,6.5972,6.5917,6.5914,6.589,6.5896,6.5979,6.5972,6.5919,6.5913,6.5922,6.5972,6.5997,6.6004,6.6134,6.601,6.6016,6.6021,6.6023,6.6374,6.6379,0,0,0,0,0,0,6.5807,6.5818,6.597,6.5974,6.585,6.5898,6.5905,6.5946,6.5971,6.5971,6.5926,6.5918,6.5987,6.5996,6.6006,6.6168,6.6018,6.6024,6.6028,6.6369,6.6375,6.6381,0,0,0,0,0,0,6.5803,6.5821,6.5967,6.5894,6.5911,6.5907,6.5953,6.595,6.5975,6.5977,6.5974,6.5954,6.5984,6.5996,6.6097,6.6169,6.6027,6.6034,6.6363,6.6371,6.6378,6.6495,0,0,0,0,0,0,6.5797,6.5821,6.5875,6.5896,6.5915,6.606,6.5958,6.5954,6.5988,6.5977,6.6002,6.6001,6.5981,6.6087,6.6104,6.6176,6.6039,6.6357,6.6367,6.6376,6.6485,6.6506,6.6524,0,0,0,0,0,6.579,6.5905,6.5878,6.5897,6.5984,6.6064,6.6075,6.6051,6.5994,6.6047,6.6048,6.6,6.6159,6.6099,6.6117,6.6192,6.6352,6.6364,6.6375,6.6476,6.6502,6.6523,0,0,0,0,0,0,6.5891,6.5907,6.5878,6.6003,6.6033,6.6049,6.6116,6.6079,6.6125,6.6113,6.608,6.6086,6.6194,6.6203,6.6135,6.6326,6.6246,6.6261,6.6316,6.6341,6.636,6.6354,6.6045,0,0,0,0,0,6.5928,6.5994,6.6004,6.6114,6.613,6.6121,6.6155,6.6134,6.6163,6.6174,6.6183,6.6211,6.6267,6.6304,6.6356,6.6486,6.6488,6.6546,6.6566,6.6582,6.6595,6.6661,6.6686,6.6419,6.6419,6.6419,0,0,6.6005,6.6022,6.6066,6.6134,6.6155,6.6221,6.6132,6.6207,6.6255,6.6185,6.6281,6.6288,6.6317,6.6433,6.6484,6.6443,6.667,6.6596,6.6609,6.6614,6.6676,6.6701,6.6724,6.6427,6.6425,6.6424,0,0,6.6179,6.62,6.6292,6.6315,6.6347,6.634,6.6362,6.6383,6.6385,6.6481,6.6429,6.6485,6.6583,6.6605,6.6629,6.6809,6.6766,6.6827,6.6928,6.6993,6.7014,6.7033,6.7095,6.7118,6.6841,6.6841,6.6841,0,6.627,6.6371,6.6344,6.6422,6.6452,6.6393,6.6485,6.6507,6.6555,6.6576,6.6531,6.665,6.6666,6.6784,6.6828,6.6851,6.6873,6.6823,6.7014,6.7032,6.7049,6.7107,6.7131,6.6848,6.6847,6.6846,6.6846,0,6.6479,6.6549,6.662,6.6667,6.6706,6.6791,6.6774,6.6816,6.6791,6.6788,6.6884,6.6901,6.6954,6.698,6.6957,6.7095,6.7069,6.702,6.6938,6.7082,6.7136,6.7159,6.6858,6.6855,6.6853,6.6852,0,0,6.6719,6.675,6.6777,6.6796,6.6827,6.6879,6.696,6.7012,6.7047,6.7081,6.7146,6.723,6.7183,6.7211,6.7189,6.7246,6.7384,6.7189,6.7189,6.7223,6.7534,6.757,6.7597,6.7357,6.7361,6.7364,6.7531,0,6.6891,6.7032,6.701,6.7145,6.7207,6.7151,6.722,6.7245,6.7244,6.7295,6.7292,6.7351,6.7287,6.7303,6.7357,6.7356,6.7446,6.7344,6.7414,6.7417,6.7407,6.7625,6.7664,6.7821,6.7552,6.7556,6.7559,0,6.7111,6.7153,6.7295,6.7313,6.7339,6.7402,6.7447,6.7497,6.7523,6.7518,6.7548,6.7515,6.7592,6.7511,6.7615,6.7546,6.7573,6.7577,6.7582,6.7587,6.7496,6.7633,6.787,6.7893,6.7592,6.7589,6.7587,0,6.7269,6.7361,6.7457,6.7476,6.7501,6.7546,6.7558,6.7579,6.7611,6.765,6.767,6.7717,6.7743,6.7779,6.7758,6.7701,6.7866,6.7783,6.7861,6.7862,6.7898,6.7895,6.814,6.7919,6.7918,6.7918,6.7917,0,6.7462,6.755,6.7528,6.7587,6.7683,6.7655,6.7751,6.7756,6.7775,6.7832,6.7786,6.784,6.781,6.7862,6.7846,6.7933,6.7946,6.7942,6.7936,6.7945,6.7945,6.7961,6.7949,6.7924,6.7923,6.7921,6.792,0,6.7654,6.7643,6.7744,6.7759,6.7764,6.7834,6.7845,6.7899,6.7894,6.7966,6.7982,6.7973,6.803,6.8014,6.8076,6.8065,6.8176,6.8157,6.8167,6.8162,6.8241,6.8233,6.8503,6.8536,6.8295,6.8297,6.8299,0,6.7778,6.7844,6.7866,6.7901,6.7917,6.7975,6.8007,6.7981,6.8017,6.805,6.8099,6.8153,6.8194,6.8289,6.8287,6.8333,6.8314,6.8406,6.8321,6.8327,6.8313,6.8309,6.8314,6.8422,6.8425,6.8427,6.8429,0,6.7997,6.7988,6.8037,6.8084,6.8124,6.816,6.8191,6.8222,6.8198,6.824,6.8299,6.8331,6.8394,6.8447,6.849,6.8499,6.846,6.8456,6.8476,6.8485,6.8487,6.8485,6.8211,6.8449,6.8447,6.8446,6.8445,6.8444,6.8157,6.8212,6.8236,6.8291,6.8312,6.8342,6.8392,6.8393,6.8442,6.8492,6.8474,6.854,6.8562,6.8615,6.863,6.868,6.8645,6.8675,6.8682,6.869,6.8699,6.8481,6.8688,6.8687,6.8687,6.8686,6.8686,0,6.8372,6.8384,6.8435,6.848,6.8523,6.8484,6.8515,6.8553,6.8613,6.8637,6.8679,6.8745,6.8796,6.8797,6.8844,6.8884,6.8867,6.8897,6.8893,6.8895,6.8728,6.8705,6.891,6.891,6.891,6.891,6.891,6.891,6.8488,6.8579,6.8573,6.8672,6.8683,6.8749,6.877,6.8796,6.8815,6.8891,6.8933,6.8934,6.8949,6.8996,6.904,6.9038,6.9057,6.9094,6.9086,6.893,6.8907,6.8886,6.8864,6.9098,6.9099,6.9248,6.9249,6.925]}]]